User: anonymous   Login
Location: Caltech
(34.1382°N, 118.1253°W)
Time: 19:52:43
(UTC-07:00)
Language:

Meteor 1-11 Rocket - Orbit

View from above orbital plane
View from above orbital plane
View from above satellite
View from above satellite

Ground track
Ground track

The orbit data is extracted from the following two-line orbital elements,

1 05918U 72022B   16209.81137322  .00000091  00000-0  47347-4 0  9990
2 05918  81.2376 279.6578 0059078 157.5620 202.8153 14.05806715272426
Epoch (UTC): 27 July 2016 19:28:22
Eccentricity: 0.0059078
inclination: 81.2376°
perigee height: 831 km
apogee height: 916 km
right ascension of ascending node: 279.6578°
argument of perigee: 157.5620°
revolutions per day: 14.05806715
mean anomaly at epoch: 202.8153°
orbit number at epoch: 27242

The dashed part of the orbit path shows where the satellite is in the earth's shadow,  

DLR